Regional Weather Roundup
Issued by NWS Charleston, WV

Home | Current Version | Previous Version | Graphics & Text | Print | Product List | Glossary On
Versions: 1 2 3 4 5 6 7 8 9 10 11 12 13 14 15 16 17 18 19 20 21 22 23 24 25 26 27 28 29 30 31 32 33 34 35 36 37 38 39 40 41 42 43 44 45 46 47 48 49 50
000
ASUS41 KRLX 250210
RWRRLX
West Virginia Regional Weather Roundup
National Weather Service Charleston WV
1000 PM EDT THU JUL 24 2014

Note: "fair" indicates few or no clouds below 12,000 feet with no
significant weather and/or obstructions to visibility.

WVZ003-250300-
Northern Panhandle of West Virginia

CITY           SKY/WX    TMP DP  RH WIND       PRES   REMARKS
WHEELING       CLEAR     65  51  60 N6        30.04R
$$

WVZ009-250300-
Northwest West Virginia

CITY           SKY/WX    TMP DP  RH WIND       PRES   REMARKS
PARKERSBURG      N/A     62  59  90 MISG      30.05R
$$

WVZ006-250300-
Western West Virginia

CITY           SKY/WX    TMP DP  RH WIND       PRES   REMARKS
HUNTINGTON     CLOUDY    65  64  97 CALM      30.02R
$$

WVZ015-250300-
West Central West Virginia

CITY           SKY/WX    TMP DP  RH WIND       PRES   REMARKS
CHARLESTON     PTCLDY    65  64  97 SW3       30.02R
$$

WVZ031-250300-
North Central West Virginia

CITY           SKY/WX    TMP DP  RH WIND       PRES   REMARKS
CLARKSBURG     PTCLDY    64  55  72 CALM      30.01R
MORGANTOWN     CLEAR     66  52  60 N3        30.02R
$$

WVZ035-042-045-250300-
South Central West Virginia

CITY           SKY/WX    TMP DP  RH WIND       PRES   REMARKS
BECKLEY        MOCLDY    62  59  90 CALM      30.07R FOG
BLUEFIELD      CLOUDY    64  59  83 N6        30.09R
LEWISBURG      PTCLDY    65  59  79 CALM      30.05R
$$

WVZ047-250300-
Northern Mountains of West Virginia

CITY           SKY/WX    TMP DP  RH WIND       PRES   REMARKS
ELKINS         CLEAR     59  57  93 CALM      30.04R
$$

WVZ052-250300-
Eastern Panhandle of West Virginia

CITY           SKY/WX    TMP DP  RH WIND       PRES   REMARKS
MARTINSBURG    PTCLDY    67  55  65 CALM      29.96R
PETERSBURG     PTCLDY    64  57  76 CALM      30.00R
$$


USA.gov is the U.S. government's official web portal to all federal, state and local government web resources and services.